Billings, MT

7:09 PM MDT on September 28, 2016 (GMT -0600)
Billings Logan International

Weather History for KBIL - June, 2014

Change the Weather History Date:

Saturday, June 14, 2014

  Actual Average Record
Temperature  
Mean Temperature 58 °F 64 °F  
Max Temperature 67 °F 77 °F 98 °F (1959)
Min Temperature 49 °F 52 °F 38 °F (1969)
Degree Days  
Heating Degree Days 7 3  
Month to date heating degree days 66 64  
Since 1 June heating degree days 66 64  
Since 1 July heating degree days 7143 6750  
Cooling Degree Days 0 2  
Month to date cooling degree days 3 23  
Year to date cooling degree days 19 40  
Since 1 June cooling degree days 3 23  
Growing Degree Days 8 (Base 50)    
Moisture  
Dew Point 41 °F    
Average Humidity 49    
Maximum Humidity 66    
Minimum Humidity 32    
Precipitation  
Precipitation 0.11 in 0.08 in 0.71 in (1992)
Month to date precipitation 1.00 1.08  
Year to date precipitation 8.83 6.94  
Snow  
Snow T in 0.00 in T in (2014)
Month to date snowfall T 0.0  
Since 1 June snowfall T 0.0  
Since 1 July snowfall 103.5 55.0  
Snow Depth 0.00 in    
Sea Level Pressure  
Sea Level Pressure 29.77 in    
Wind  
Wind Speed 10 mph (NW)    
Max Wind Speed 28 mph    
Max Gust Speed 33 mph    
Visibility 10 miles    
Events Rain , Thunderstorm    
T = Trace of Precipitation, MM = Missing Value Source: NWS Daily Summary

Daily Weather History Graph

Daily Weather History Graph

Search for Another Location

Airport or City:

Trip Planner

Search our weather history database for the weather conditions in past years. The results will help you decide how hot, cold, wet, or windy it might be!

Date:

Astronomy

Jun. 14, 2014 Rise Set
Actual Time 5:23 AM MDT 9:05 PM MDT
Civil Twilight 4:45 AM MDT 9:43 PM MDT
Nautical Twilight 3:54 AM MDT 10:35 PM MDT
Astronomical Twilight 2:43 AM MDT 11:45 PM MDT
Moon 10:24 PM MDT (6/14) 7:16 AM MDT (6/14)
Length of Visible Light 16h 58m
Length of Day
15h 41m
Waning Gibbous, 96% of the Moon is Illuminated
Jun 14
Waning Gibbous
Jun 19
Last Quarter
Jun 27
New
Jul 5
First Quarter
Jul 12
Full

Hourly Weather History & Observations

Time (MDT) Temp. Dew Point Humidity Pressure Visibility Wind Dir Wind Speed Gust Speed Precip Events Conditions
12:53 AM 54.0 °F 41.0 °F 62% 29.73 in 10.0 mi NW 15.0 mph - N/A   Mostly Cloudy
1:53 AM 55.0 °F 39.9 °F 57% 29.74 in 10.0 mi WNW 16.1 mph 23.0 mph N/A   Overcast
2:53 AM 53.1 °F 39.0 °F 59% 29.72 in 10.0 mi WSW 8.1 mph - N/A   Mostly Cloudy
3:53 AM 52.0 °F 39.9 °F 63% 29.72 in 10.0 mi SW 5.8 mph - N/A   Mostly Cloudy
4:53 AM 52.0 °F 39.0 °F 61% 29.73 in 10.0 mi WSW 6.9 mph - N/A   Overcast
5:53 AM 51.1 °F 39.0 °F 63% 29.75 in 10.0 mi SSW 8.1 mph - N/A   Overcast
6:53 AM 51.1 °F 39.0 °F 63% 29.78 in 10.0 mi SW 8.1 mph - 0.00 in Rain Light Rain
7:53 AM 51.1 °F 39.0 °F 63% 29.77 in 10.0 mi WNW 4.6 mph - 0.00 in   Overcast
8:53 AM 50.0 °F 42.1 °F 74% 29.78 in 10.0 mi SE 5.8 mph - 0.01 in Rain Light Rain
9:53 AM 52.0 °F 42.1 °F 69% 29.79 in 10.0 mi ESE 4.6 mph - 0.00 in   Mostly Cloudy
10:53 AM 55.9 °F 43.0 °F 62% 29.78 in 10.0 mi East 4.6 mph - 0.00 in   Mostly Cloudy
11:53 AM 57.9 °F 42.1 °F 56% 29.77 in 10.0 mi Calm Calm - 0.00 in   Mostly Cloudy
12:15 PM 53.1 °F 44.1 °F 71% 29.80 in 10.0 mi North 13.8 mph - 0.00 in Rain Light Rain
12:22 PM 50.0 °F 43.0 °F 77% 29.80 in 8.0 mi NNE 9.2 mph - 0.04 in Rain Light Hail
12:31 PM 50.0 °F 45.0 °F 83% 29.81 in 10.0 mi North 4.6 mph - 0.08 in   Mostly Cloudy
12:53 PM 55.0 °F 45.0 °F 69% 29.78 in 10.0 mi ENE 6.9 mph - 0.08 in   Mostly Cloudy
1:53 PM 60.1 °F 44.1 °F 55% 29.74 in 10.0 mi Variable 4.6 mph - N/A   Mostly Cloudy
2:13 PM 57.0 °F 39.9 °F 53% 29.79 in 10.0 mi NW 15.0 mph 24.2 mph 0.00 in Rain Light Rain
2:17 PM 55.9 °F 39.9 °F 55% 29.79 in 10.0 mi NW 12.7 mph 24.2 mph 0.02 in Rain Light Rain
2:24 PM 57.9 °F 39.9 °F 51% 29.79 in 10.0 mi NW 8.1 mph - 0.02 in Thunderstorm Thunderstorm
2:53 PM 57.2 °F 44.6 °F 63% 29.78 in 10.0 mi SSE 5.8 mph - N/A   Mostly Cloudy
3:53 PM 66.0 °F 36.0 °F 33% 29.72 in 10.0 mi NW 17.3 mph 25.3 mph N/A   Mostly Cloudy
4:53 PM 60.1 °F 43.0 °F 53% 29.76 in 10.0 mi North 15.0 mph - 0.00 in   Mostly Cloudy
5:53 PM 59.0 °F 41.0 °F 51% 29.78 in 10.0 mi North 9.2 mph - N/A   Mostly Cloudy
6:53 PM 59.0 °F 37.9 °F 46% 29.78 in 10.0 mi WNW 17.3 mph 27.6 mph N/A   Mostly Cloudy
7:53 PM 55.9 °F 37.9 °F 51% 29.81 in 10.0 mi West 15.0 mph 21.9 mph N/A   Mostly Cloudy
8:53 PM 55.9 °F 39.0 °F 53% 29.81 in 10.0 mi West 13.8 mph - N/A   Mostly Cloudy
9:53 PM 55.0 °F 39.9 °F 57% 29.82 in 10.0 mi NW 11.5 mph - N/A   Mostly Cloudy
10:53 PM 53.1 °F 41.0 °F 64% 29.80 in 10.0 mi NW 15.0 mph - N/A   Mostly Cloudy
11:53 PM 52.0 °F 39.9 °F 63% 29.81 in 10.0 mi WNW 15.0 mph - N/A   Mostly Cloudy